Dashboard

GC70MPK - #30 Saarland - Quiz

by Maije im Saarland

published: Tue, 14 Mar 2017 3:32:50 pm

Certitude Solution



Puzzle stats
994 Woo-Hoo!
5815 D'Oh!
Latest activity:
Wed, 17 Jan 2018
Note that some of those attempts may have been anonymous.



You can subscribe to an RSS feed for:
 this puzzle
 Maije im Saarland's puzzles
 puzzles in N49 E006 quadrangle
 puzzles in Saarland
 all puzzles

Your geocaching name is unknown, please sign in to identify yourself. How does it work?

Puzzle solvers, you can certify your solution here:
Show solution 
Show attempts 

(keyword required)
  Stay anonymous

Certified solvers

RankUserTime (Berlin, Europe)
1.oldie86Tue, 14 Mar 2017 5:34:38 pm
2.JoDaY83Tue, 14 Mar 2017 6:08:36 pm
3.JFZTue, 14 Mar 2017 7:10:49 pm
4.ewu2001Tue, 14 Mar 2017 7:37:28 pm
5.Urmel.80Tue, 14 Mar 2017 7:52:52 pm
6.hambischer_11Tue, 14 Mar 2017 8:30:02 pm
7.dev46Tue, 14 Mar 2017 8:38:43 pm
8.DrHoolTue, 14 Mar 2017 8:41:29 pm
9.Psycho906Tue, 14 Mar 2017 9:00:10 pm
10.littelchenTue, 14 Mar 2017 9:30:33 pm
11.EllysharTue, 14 Mar 2017 9:45:12 pm
12.MistmaeuseTue, 14 Mar 2017 10:02:57 pm
13.SharulfoTue, 14 Mar 2017 10:04:41 pm
14.WomofamilieTue, 14 Mar 2017 10:17:22 pm
15.sospelTue, 14 Mar 2017 10:24:44 pm
16.DieGiftzwergeTue, 14 Mar 2017 10:33:52 pm
17.alvin_norgeTue, 14 Mar 2017 10:47:06 pm
18.roteringelsockeTue, 14 Mar 2017 10:50:47 pm
19.TEAM_MARLIBUTue, 14 Mar 2017 10:52:14 pm
20.Corvus1Tue, 14 Mar 2017 11:24:29 pm
21.Garfield1970Tue, 14 Mar 2017 11:40:27 pm
22.SaFArianaWed, 15 Mar 2017 12:50:26 am
23.schnubi87Wed, 15 Mar 2017 1:19:57 am
24.tasolinoWed, 15 Mar 2017 6:33:35 am
25.HyppodereinzigeWed, 15 Mar 2017 8:24:19 am
26.Saar WikingerWed, 15 Mar 2017 8:55:36 am
27.yamir614Wed, 15 Mar 2017 8:58:45 am
28.Hunter StingbertWed, 15 Mar 2017 9:33:18 am
29.Red_familyWed, 15 Mar 2017 9:51:38 am
30.FRP-OWed, 15 Mar 2017 10:30:10 am
31.sunnysky.gerWed, 15 Mar 2017 11:05:48 am
32.Kruemel65Wed, 15 Mar 2017 11:29:28 am
33.cach-u-crewWed, 15 Mar 2017 11:32:59 am
34.MoselfunWed, 15 Mar 2017 11:37:47 am
35.kayzersoseWed, 15 Mar 2017 11:56:02 am
36.Tripple XWed, 15 Mar 2017 1:40:46 pm
37.The SteintigersWed, 15 Mar 2017 1:56:15 pm
38.rouchWed, 15 Mar 2017 2:07:12 pm
39.Team_OwenMeanyWed, 15 Mar 2017 2:21:27 pm
40.KaterlysatorWed, 15 Mar 2017 3:01:11 pm
41.Team mr.froehnWed, 15 Mar 2017 3:05:32 pm
42.SpurenCobaltWed, 15 Mar 2017 3:10:25 pm
43.Frankenpower_GPSWed, 15 Mar 2017 4:33:02 pm
44.*Wishmistress*Wed, 15 Mar 2017 4:59:04 pm
45.mimovifiWed, 15 Mar 2017 5:13:14 pm
46.wirmithundWed, 15 Mar 2017 5:56:13 pm
47.FoersterlieselWed, 15 Mar 2017 5:59:39 pm
48.HeimasitiWed, 15 Mar 2017 6:12:00 pm
49.Luna49Wed, 15 Mar 2017 6:24:38 pm
50.dercachermimbecherWed, 15 Mar 2017 6:51:55 pm
51.EifelfindusWed, 15 Mar 2017 7:02:21 pm
52.black-runnerWed, 15 Mar 2017 7:16:55 pm
53.bibliothekarWed, 15 Mar 2017 7:26:21 pm
54.Hrothgar71Wed, 15 Mar 2017 7:34:08 pm
55.Team ulrich670Wed, 15 Mar 2017 7:52:52 pm
56.thoralinoWed, 15 Mar 2017 9:09:27 pm
57.Die WasgaukoboldeWed, 15 Mar 2017 9:56:12 pm
58.KattherineWed, 15 Mar 2017 9:56:31 pm
59.LabradormixWed, 15 Mar 2017 9:58:58 pm
60.Luma0309Wed, 15 Mar 2017 10:08:39 pm
61.andyp30Wed, 15 Mar 2017 11:08:05 pm
62.Saarlaender2011Wed, 15 Mar 2017 11:13:12 pm
63.Sascha & ManuelaThu, 16 Mar 2017 6:50:42 am
64.murremeschThu, 16 Mar 2017 10:29:55 am
65.ruemueniThu, 16 Mar 2017 10:43:37 am
66.grasi73Thu, 16 Mar 2017 10:54:04 am
67.WK1711Thu, 16 Mar 2017 11:30:13 am
68.GuckstDuThu, 16 Mar 2017 11:37:18 am
69.Mini-SternchenThu, 16 Mar 2017 11:46:17 am
70.JeDoChiTaThu, 16 Mar 2017 12:54:58 pm
71.KlawittersThu, 16 Mar 2017 2:35:37 pm
72.Die4JHsThu, 16 Mar 2017 3:29:55 pm
73.Titanonyes79Thu, 16 Mar 2017 3:52:38 pm
74.adidasgirl06/elefantThu, 16 Mar 2017 3:54:56 pm
75.janaleo98Thu, 16 Mar 2017 5:35:00 pm
76.Luxi214Thu, 16 Mar 2017 5:53:40 pm
77.TrailwildThu, 16 Mar 2017 5:53:45 pm
78.abraxas8082Thu, 16 Mar 2017 8:29:25 pm
79.saramabieneThu, 16 Mar 2017 8:38:46 pm
80.tigerententeamThu, 16 Mar 2017 8:39:55 pm
81.NasnbeaschnThu, 16 Mar 2017 9:41:14 pm
82.kingauluThu, 16 Mar 2017 9:45:38 pm
83.DücomofeThu, 16 Mar 2017 9:46:24 pm
84.Schlumpfine27Thu, 16 Mar 2017 10:10:39 pm
85.Spürnasen-AbteiThu, 16 Mar 2017 10:33:01 pm
86.haibaikFri, 17 Mar 2017 8:04:22 am
87.SpeedyralleFri, 17 Mar 2017 9:02:36 am
88.Carbonell1Fri, 17 Mar 2017 9:39:16 am
89.northernvikingFri, 17 Mar 2017 9:45:19 am
90.wirvomfcsFri, 17 Mar 2017 10:17:38 am
91.*Nuffy*Fri, 17 Mar 2017 11:41:09 am
92.Amra57Fri, 17 Mar 2017 12:00:28 pm
93.HandkopflerFri, 17 Mar 2017 1:06:12 pm
94.rosbyFri, 17 Mar 2017 1:48:03 pm
95.mihoroFri, 17 Mar 2017 2:07:03 pm
96.HoppelsFri, 17 Mar 2017 3:20:41 pm
97.Kleines LichtFri, 17 Mar 2017 4:32:57 pm
98.mikewesFri, 17 Mar 2017 7:02:56 pm
99.humpelfreundFri, 17 Mar 2017 7:56:45 pm
100.tinchen1812Fri, 17 Mar 2017 8:01:48 pm
101.DerTopfstädterFri, 17 Mar 2017 8:19:34 pm
102.Michael74NRWFri, 17 Mar 2017 8:49:46 pm
103.chibbezFri, 17 Mar 2017 10:01:35 pm
104.LanpeFri, 17 Mar 2017 10:52:18 pm
105.GG-TeamSat, 18 Mar 2017 11:06:47 am
106.Ps-CacherSat, 18 Mar 2017 12:09:27 pm
107.Pathfinder_73Sat, 18 Mar 2017 12:27:18 pm
108.PortokeilSat, 18 Mar 2017 12:51:24 pm
109.Team tatahueSat, 18 Mar 2017 12:59:48 pm
110.Die AuslaufmodelleSat, 18 Mar 2017 1:36:27 pm
111.BlackMamba92Sat, 18 Mar 2017 3:43:02 pm
112.Torfkopp1Sat, 18 Mar 2017 4:14:09 pm
113.TeamBlinkySat, 18 Mar 2017 4:17:03 pm
114.Team_KnuffyySat, 18 Mar 2017 6:52:06 pm
115.Team PriwinSat, 18 Mar 2017 6:55:04 pm
116.norbparvusSat, 18 Mar 2017 8:02:58 pm
117.mrtvmSat, 18 Mar 2017 8:10:15 pm
118.*B'Elanna*Sat, 18 Mar 2017 9:09:20 pm
119.CroblerSat, 18 Mar 2017 9:10:41 pm
120.ThaburSat, 18 Mar 2017 10:03:09 pm
121.moselengel76Sat, 18 Mar 2017 10:39:22 pm
122.Det01Sat, 18 Mar 2017 10:58:37 pm
123.ZwergaSat, 18 Mar 2017 11:00:32 pm
124.bobber1Sat, 18 Mar 2017 11:14:10 pm
125.TheGreenToolSun, 19 Mar 2017 12:13:06 am
126.kieluSun, 19 Mar 2017 12:32:46 am
127.Team HolziSun, 19 Mar 2017 1:47:02 am
128.zauberbruderSun, 19 Mar 2017 7:23:41 am
129.GenîusSun, 19 Mar 2017 8:49:31 am
130.Team Yellow LMSun, 19 Mar 2017 9:23:02 am
131.JoPeDieSun, 19 Mar 2017 9:44:33 am
132.AnTiLeSun, 19 Mar 2017 10:29:35 am
133.SvenFriedrich1978Sun, 19 Mar 2017 10:46:21 am
134.BatMan69207Sun, 19 Mar 2017 11:36:46 am
135.bunselSun, 19 Mar 2017 11:41:28 am
136.Achim2205Sun, 19 Mar 2017 11:48:44 am
137.regiluwiSun, 19 Mar 2017 11:57:35 am
138.C.K.LSun, 19 Mar 2017 11:57:55 am
139.ArminMariusSun, 19 Mar 2017 11:58:08 am
140.tom993811Sun, 19 Mar 2017 12:01:00 pm
141.BharaniSun, 19 Mar 2017 12:09:04 pm
142.whyzidasSun, 19 Mar 2017 12:20:10 pm
143.Sucher/FinderSun, 19 Mar 2017 1:07:43 pm
144.GarfieldFFMSun, 19 Mar 2017 1:21:12 pm
145.De EsSun, 19 Mar 2017 1:21:41 pm
146.TeamjmjSun, 19 Mar 2017 3:11:00 pm
147.DalleshockerSun, 19 Mar 2017 3:22:29 pm
148.geckofreundSun, 19 Mar 2017 3:28:54 pm
149.theoigelSun, 19 Mar 2017 3:41:09 pm
150.Dotwin73Sun, 19 Mar 2017 3:53:04 pm
151.Team Tip&TapSun, 19 Mar 2017 4:11:02 pm
152.Michael NSun, 19 Mar 2017 4:12:54 pm
153.IgelnasenSun, 19 Mar 2017 4:25:22 pm
154.SkapasSun, 19 Mar 2017 4:50:31 pm
155.oldsparrowSun, 19 Mar 2017 5:31:59 pm
156.goldgrubeSun, 19 Mar 2017 6:15:08 pm
157.HoPe137Sun, 19 Mar 2017 6:37:40 pm
158.peterpan_sls70Sun, 19 Mar 2017 6:45:15 pm
159.Geomicha1Sun, 19 Mar 2017 7:03:17 pm
160.horisonaSun, 19 Mar 2017 7:14:36 pm
161.Trigeminus79Sun, 19 Mar 2017 7:18:41 pm
162.swatadmSun, 19 Mar 2017 7:45:39 pm
163.TeamTGCSun, 19 Mar 2017 7:46:15 pm
164.Marie-PrinceSun, 19 Mar 2017 7:58:37 pm
165.Joe UltraSun, 19 Mar 2017 8:14:11 pm
166.PeJüKAnSun, 19 Mar 2017 8:30:06 pm
167.Team_UrPilsSun, 19 Mar 2017 8:43:43 pm
168.nicolaxeSun, 19 Mar 2017 9:18:11 pm
169.geolinchen127Sun, 19 Mar 2017 9:28:35 pm
170.M&M'08Sun, 19 Mar 2017 9:54:21 pm
171.Striker75Sun, 19 Mar 2017 9:54:58 pm
172.Die Handballer'sSun, 19 Mar 2017 9:56:28 pm
173.Die_Gaa5j3rSun, 19 Mar 2017 10:00:42 pm
174.Tomcat0307Sun, 19 Mar 2017 10:29:08 pm
175.GPS-THSCHSun, 19 Mar 2017 11:19:52 pm
176.919Mon, 20 Mar 2017 12:11:11 am
177.Scouch1Mon, 20 Mar 2017 10:01:41 am
178.ballbreaker67Mon, 20 Mar 2017 10:15:23 am
179.CastParoMon, 20 Mar 2017 12:10:00 pm
180.CastParoMon, 20 Mar 2017 12:10:00 pm
181.thestupid007Mon, 20 Mar 2017 12:10:40 pm
182.Team LoewenjaegerMon, 20 Mar 2017 12:42:58 pm
183.eifel-manMon, 20 Mar 2017 2:17:07 pm
184.Mi-TeamMon, 20 Mar 2017 2:25:42 pm
185.SanIsaMon, 20 Mar 2017 2:39:18 pm
186.BBQTMon, 20 Mar 2017 3:26:24 pm
187.Wichteline69Mon, 20 Mar 2017 3:55:21 pm
188.MaleconMon, 20 Mar 2017 5:17:34 pm
189.Teufel+HexeMon, 20 Mar 2017 5:18:53 pm
190.luzzi-reloadedMon, 20 Mar 2017 5:26:42 pm
191.nurmusMon, 20 Mar 2017 5:47:57 pm
192.meBalooMon, 20 Mar 2017 5:49:59 pm
193.johnny lightningMon, 20 Mar 2017 5:50:33 pm
194.OnkelManni+VMon, 20 Mar 2017 6:08:09 pm
195.Obscura_ToursMon, 20 Mar 2017 6:49:32 pm
196.Pumuckl XLMon, 20 Mar 2017 7:27:12 pm
197.T0I3145Mon, 20 Mar 2017 7:28:19 pm
198.Maginot100Mon, 20 Mar 2017 8:54:47 pm
199.WuselcheMon, 20 Mar 2017 9:08:56 pm
200.Mr.El.Mon, 20 Mar 2017 9:09:34 pm
201.gaudiumMon, 20 Mar 2017 9:56:50 pm
202.Kneckes0_1Mon, 20 Mar 2017 10:05:00 pm
203.Kalle65Tue, 21 Mar 2017 9:37:11 am
204.TeamPetty02Tue, 21 Mar 2017 12:33:03 pm
205.Surgeon2kTue, 21 Mar 2017 12:44:39 pm
206.mhb72Tue, 21 Mar 2017 12:53:19 pm
207.EffreysTue, 21 Mar 2017 2:24:48 pm
208.WattwurmJanaTue, 21 Mar 2017 2:31:03 pm
209.Tina FranziskaTue, 21 Mar 2017 3:01:31 pm
210.aztekeTue, 21 Mar 2017 5:36:24 pm
211.YolandisTue, 21 Mar 2017 5:57:41 pm
212.capitanok9Tue, 21 Mar 2017 7:12:51 pm
213.mopesuTue, 21 Mar 2017 7:22:19 pm
214.HanniU66Tue, 21 Mar 2017 8:04:48 pm
215.maxijana2011Tue, 21 Mar 2017 8:11:12 pm
216.BSPMKLOSTue, 21 Mar 2017 8:36:28 pm
217.HGSCHTue, 21 Mar 2017 9:17:58 pm
218.panther0905Tue, 21 Mar 2017 9:38:11 pm
219.Team CoconutPeteTue, 21 Mar 2017 10:29:05 pm
220.biene811Tue, 21 Mar 2017 11:06:21 pm
221.marheWed, 22 Mar 2017 1:37:14 pm
222.FC ISIWed, 22 Mar 2017 2:17:48 pm
223.magali76Wed, 22 Mar 2017 2:41:15 pm
224.WoisträßlerWed, 22 Mar 2017 3:18:10 pm
225.PanglaoWed, 22 Mar 2017 3:55:42 pm
226.J&J11Wed, 22 Mar 2017 4:07:09 pm
227.Brioche07Wed, 22 Mar 2017 4:20:56 pm
228.Gollo71Wed, 22 Mar 2017 5:19:11 pm
229.herreg123Wed, 22 Mar 2017 7:06:48 pm
230.Team MileyWed, 22 Mar 2017 7:08:28 pm
231.Ruebe71Wed, 22 Mar 2017 10:27:30 pm
232.Bady145Wed, 22 Mar 2017 10:38:35 pm
233.Electronaut.EBMThu, 23 Mar 2017 12:52:25 am
234.IlionakesThu, 23 Mar 2017 11:29:01 am
235.JuMa02Thu, 23 Mar 2017 12:12:24 pm
236.bitcherländerThu, 23 Mar 2017 1:35:33 pm
237.mianlamiThu, 23 Mar 2017 4:30:08 pm
238.GalatzoThu, 23 Mar 2017 5:29:34 pm
239.MX569Thu, 23 Mar 2017 6:01:10 pm
240.Wonni2903Thu, 23 Mar 2017 8:06:07 pm
241.exilsaarlaenderThu, 23 Mar 2017 9:28:30 pm
242.HesakingThu, 23 Mar 2017 9:41:31 pm
243.Pfälzer BubFri, 24 Mar 2017 3:08:23 am
244.Sunrise2207Fri, 24 Mar 2017 11:56:41 am
245.EiskaltesHaendchenFri, 24 Mar 2017 1:49:00 pm
246.Tabaluga99Fri, 24 Mar 2017 6:05:37 pm
247.we.Fri, 24 Mar 2017 10:49:19 pm
248.marky_deFri, 24 Mar 2017 11:23:13 pm
249.I.M.HerzogSat, 25 Mar 2017 7:49:57 am
250.Geo FlashSat, 25 Mar 2017 4:23:32 pm
251.ph13Sun, 26 Mar 2017 2:11:41 pm
252.edelridSun, 26 Mar 2017 4:29:28 pm
253.SaarbockSun, 26 Mar 2017 9:06:55 pm
254.DodoloresSun, 26 Mar 2017 9:44:26 pm
255.ELMI FCSun, 26 Mar 2017 10:07:17 pm
256.Zottel43Sun, 26 Mar 2017 11:21:31 pm
257.marmar.brhvMon, 27 Mar 2017 7:24:58 am
258.waldi994aMon, 27 Mar 2017 1:16:28 pm
259.Meersau112Mon, 27 Mar 2017 1:34:09 pm
260.hannieaushessenMon, 27 Mar 2017 6:16:21 pm
261.sithnoMon, 27 Mar 2017 7:24:38 pm
262.Team velocity7Mon, 27 Mar 2017 7:44:31 pm
263.abnorMaliTue, 28 Mar 2017 9:29:30 am
264.lion638Tue, 28 Mar 2017 10:04:40 am
265.derek78Tue, 28 Mar 2017 10:43:39 am
266.GeoWikingerTue, 28 Mar 2017 12:32:37 pm
267.geo_kaktusTue, 28 Mar 2017 1:08:27 pm
268.SaHaReTue, 28 Mar 2017 2:40:48 pm
269.maerzfisch64Tue, 28 Mar 2017 5:24:50 pm
270.Legolas26Tue, 28 Mar 2017 5:34:38 pm
271.dreisteine1Tue, 28 Mar 2017 7:33:29 pm
272.strix buboTue, 28 Mar 2017 10:39:53 pm
273.YAMA01Wed, 29 Mar 2017 6:12:43 pm
274.4-Ringe-DingsWed, 29 Mar 2017 9:46:00 pm
275.MeKaJaWed, 29 Mar 2017 9:57:04 pm
276.xpukWed, 29 Mar 2017 10:55:46 pm
277.savlerWed, 29 Mar 2017 10:57:54 pm
278.TeamHenzi74Thu, 30 Mar 2017 9:36:02 am
279.DrumpldeerThu, 30 Mar 2017 11:01:38 am
280.BellaMinThu, 30 Mar 2017 12:37:49 pm
281.Kowi1Thu, 30 Mar 2017 1:38:01 pm
282.The4HasardsThu, 30 Mar 2017 2:14:42 pm
283.BerndtsteineThu, 30 Mar 2017 9:10:24 pm
284.marcoreus2.0Thu, 30 Mar 2017 9:49:08 pm
285.king-tonFri, 31 Mar 2017 6:21:59 am
286.CacheSchneckeFri, 31 Mar 2017 3:30:16 pm
287.DanielRhbFri, 31 Mar 2017 4:41:35 pm
288.gwen.foxFri, 31 Mar 2017 6:03:37 pm
289.GolgaronFri, 31 Mar 2017 8:34:36 pm
290.gumbisFri, 31 Mar 2017 10:48:26 pm
291.Agent BlackSat, 1 Apr 2017 12:16:27 am
292.TiBeKa.64Sat, 1 Apr 2017 3:57:22 pm
293.licherSat, 1 Apr 2017 8:50:06 pm
294.Karlchen00768Sun, 2 Apr 2017 12:34:15 pm
295.TEAM TMLINNSun, 2 Apr 2017 1:38:18 pm
296.Niels MikkelSun, 2 Apr 2017 2:59:49 pm
297.porsche2000Sun, 2 Apr 2017 5:52:36 pm
298.Blind EaglesSun, 2 Apr 2017 6:26:51 pm
299.Frodo TaurielMon, 3 Apr 2017 10:29:49 am
300.Team IN-DIMon, 3 Apr 2017 2:00:32 pm
301.HuMaSaMon, 3 Apr 2017 7:41:48 pm
302.Die_GEOroellheimersMon, 3 Apr 2017 8:35:17 pm
303.grnschMon, 3 Apr 2017 11:00:57 pm
304.JJFrodoBTue, 4 Apr 2017 8:41:29 am
305.sidd129Tue, 4 Apr 2017 9:48:12 am
306.ActionbuebWed, 5 Apr 2017 6:37:47 am
307.Sudoku25Wed, 5 Apr 2017 1:03:20 pm
308.heksemie anirca62Wed, 5 Apr 2017 2:26:25 pm
309.HP1970Wed, 5 Apr 2017 3:05:27 pm
310.TeamCarmen00Wed, 5 Apr 2017 9:39:00 pm
311.Ute und ConnyThu, 6 Apr 2017 10:14:31 am
312.SL_WayneThu, 6 Apr 2017 12:12:57 pm
313.donschindlerThu, 6 Apr 2017 9:39:19 pm
314.rommarSat, 8 Apr 2017 9:03:55 am
315.RatingerSat, 8 Apr 2017 4:00:54 pm
316.vosi32Sat, 8 Apr 2017 7:56:08 pm
317.sohrener_2407Sat, 8 Apr 2017 8:44:14 pm
318.NehlovSun, 9 Apr 2017 9:22:46 pm
319.interflipSun, 9 Apr 2017 11:08:46 pm
320.beeflowerMon, 10 Apr 2017 12:34:59 pm
321.WiKeLaTue, 11 Apr 2017 9:32:39 pm
322.andrea.Tue, 11 Apr 2017 11:08:17 pm
323.junijuli93Wed, 12 Apr 2017 11:40:06 am
324.Ratz und RuebeWed, 12 Apr 2017 4:53:20 pm
325.MoklaWed, 12 Apr 2017 9:23:55 pm
326.GeoFox-luThu, 13 Apr 2017 5:30:30 am
327.joeheinousThu, 13 Apr 2017 2:48:43 pm
328.chrisanhoffThu, 13 Apr 2017 3:14:13 pm
329.Cache-TaucherThu, 13 Apr 2017 11:49:16 pm
330.Schiri0815Fri, 14 Apr 2017 12:17:02 pm
331.wumgrafFri, 14 Apr 2017 12:34:07 pm
332.NagerscheFri, 14 Apr 2017 1:52:24 pm
333.WanderkaiserFri, 14 Apr 2017 10:28:58 pm
334.MerdalfSat, 15 Apr 2017 8:42:07 am
335.robenjenSat, 15 Apr 2017 11:09:04 am
336.WernerSat, 15 Apr 2017 11:21:37 am
337.KrMonjaSat, 15 Apr 2017 11:24:03 am
338.CachulpinSat, 15 Apr 2017 4:30:50 pm
339.gehwohlSat, 15 Apr 2017 10:29:35 pm
340.PateskappSun, 16 Apr 2017 3:58:47 pm
341.Big CasherSun, 16 Apr 2017 4:56:24 pm
342.tuggi70Mon, 17 Apr 2017 11:19:16 am
343.dsiggi_whdMon, 17 Apr 2017 12:36:34 pm
344.ufabraMon, 17 Apr 2017 6:17:21 pm
345.ViandanteTue, 18 Apr 2017 3:45:00 pm
346.D.R.Tue, 18 Apr 2017 6:40:30 pm
347.NiMaPeJoWed, 19 Apr 2017 1:43:59 pm
348.Team Sparrow 1Wed, 19 Apr 2017 5:06:46 pm
349.SiegtalerWed, 19 Apr 2017 5:07:34 pm
350.FlohpapaWed, 19 Apr 2017 6:21:05 pm
351.PfalzbikerWed, 19 Apr 2017 9:41:46 pm
352.KleinzschachwitzerWed, 19 Apr 2017 10:22:15 pm
353.steffiheleThu, 20 Apr 2017 7:18:36 am
354.KochloeffelThu, 20 Apr 2017 3:33:26 pm
355.diefcfansThu, 20 Apr 2017 9:58:45 pm
356.Team SpicyThu, 20 Apr 2017 11:55:59 pm
357.Emser SpitzbubenFri, 21 Apr 2017 11:48:09 am
358.GitschelFri, 21 Apr 2017 4:54:14 pm
359.AlexMainzFri, 21 Apr 2017 7:49:08 pm
360.Geo-GangFri, 21 Apr 2017 11:01:34 pm
361.mrosetta_atorralbaFri, 21 Apr 2017 11:24:20 pm
362.JobitoSat, 22 Apr 2017 12:09:36 pm
363.xsbaldSat, 22 Apr 2017 1:44:24 pm
364.cachcächerSat, 22 Apr 2017 4:49:28 pm
365.Cache-GathererSat, 22 Apr 2017 5:27:24 pm
366.DereddevSun, 23 Apr 2017 10:06:08 am
367.ZFXSun, 23 Apr 2017 11:04:19 am
368.NohnySun, 23 Apr 2017 2:58:18 pm
369.thebrandysSun, 23 Apr 2017 5:09:53 pm
370.chef.kochSun, 23 Apr 2017 5:11:35 pm
371.FravoMon, 24 Apr 2017 10:06:13 am
372.DarkAkitaMon, 24 Apr 2017 7:41:09 pm
373.The NightnurseTue, 25 Apr 2017 9:30:45 pm
374.HuKlaSTue, 25 Apr 2017 10:33:03 pm
375.Tortuga1401Wed, 26 Apr 2017 4:17:15 pm
376.Die ThesenWed, 26 Apr 2017 5:25:42 pm
377.rummy70Wed, 26 Apr 2017 5:57:46 pm
378.MaJoCaSchWed, 26 Apr 2017 8:14:33 pm
379.Nobbe63Thu, 27 Apr 2017 5:41:24 pm
380.el buceoThu, 27 Apr 2017 10:01:23 pm
381.FaMüKiFri, 28 Apr 2017 5:16:38 pm
382.ShiraaSat, 29 Apr 2017 11:18:23 pm
383.Benny0312Sat, 29 Apr 2017 11:18:46 pm
384.BigBagHadSat, 29 Apr 2017 11:52:38 pm
385.funhunter78Sun, 30 Apr 2017 12:07:29 am
386.ZauberhutSun, 30 Apr 2017 10:18:20 am
387.Regentropfen2Sun, 30 Apr 2017 6:25:23 pm
388.BinsenBrotSun, 30 Apr 2017 9:03:34 pm
389.homebakersSun, 30 Apr 2017 10:01:42 pm
390.nicolas2000Sun, 30 Apr 2017 11:56:15 pm
391.Zaubermaus606Mon, 1 May 2017 7:38:28 am
392.allesmuelleroderwasMon, 1 May 2017 11:23:10 am
393.hustiliMon, 1 May 2017 4:32:39 pm
394.kleinquackiMon, 1 May 2017 7:37:13 pm
395.TeamCappyTue, 2 May 2017 8:33:16 am
396.DIDICARTue, 2 May 2017 11:46:20 am
397.Sani_NiklasTue, 2 May 2017 1:13:05 pm
398.Jack.DanielsTue, 2 May 2017 3:22:38 pm
399.Hexe48Tue, 2 May 2017 6:15:22 pm
400.Paule3Tue, 2 May 2017 10:04:51 pm
401.Anja+KnutWed, 3 May 2017 8:28:42 am
402.EinhardWed, 3 May 2017 3:35:01 pm
403.BeanJaroWed, 3 May 2017 8:26:21 pm
404.jukiliWed, 3 May 2017 9:34:45 pm
405.TatankoThu, 4 May 2017 2:48:29 am
406.bvb72Thu, 4 May 2017 9:28:26 am
407.jogele63Thu, 4 May 2017 1:14:45 pm
408.klaufischerThu, 4 May 2017 3:12:57 pm
409.e-r-nThu, 4 May 2017 4:24:33 pm
410.KehrbiThu, 4 May 2017 7:34:01 pm
411.shamrock-ladyThu, 4 May 2017 7:54:17 pm
412.hickxiThu, 4 May 2017 10:25:52 pm
413.The KieffersFri, 5 May 2017 10:28:08 am
414.GpsWutzeFri, 5 May 2017 11:33:32 am
415.jayel65Fri, 5 May 2017 8:01:17 pm
416.popfexSat, 6 May 2017 6:03:12 am
417.birkliSat, 6 May 2017 6:43:40 am
418.FiddlySat, 6 May 2017 2:14:53 pm
419.HaarteppichknüpferSat, 6 May 2017 9:07:26 pm
420.Karo1Sat, 6 May 2017 9:56:42 pm
421.Chaosmaker01Sun, 7 May 2017 12:57:54 am
422.Anjan!Sun, 7 May 2017 12:59:30 am
423.krümelmonster01Sun, 7 May 2017 1:07:24 am
424.HeEr1Sun, 7 May 2017 9:05:19 am
425.StonewalkersSun, 7 May 2017 12:04:02 pm
426.annalotta33Sun, 7 May 2017 2:21:04 pm
427.DerStephSun, 7 May 2017 6:48:46 pm
428.AnseldeluxSun, 7 May 2017 7:53:56 pm
429.Geo-SabelSun, 7 May 2017 10:30:20 pm
430.HarryschatzSun, 7 May 2017 11:58:02 pm
431.old_generalMon, 8 May 2017 10:13:23 am
432.Anastasija82Mon, 8 May 2017 3:01:32 pm
433.ludy64Mon, 8 May 2017 8:18:54 pm
434.Bianca_SweetyMon, 8 May 2017 8:29:15 pm
435.Hero99Mon, 8 May 2017 9:28:01 pm
436.3IgelMon, 8 May 2017 10:21:09 pm
437.miphimaMon, 8 May 2017 11:57:11 pm
438.November-KindTue, 9 May 2017 11:27:44 am
439.Familie J.Tue, 9 May 2017 11:52:03 am
440.fimpy8Tue, 9 May 2017 1:27:00 pm
441.Team SunlightTue, 9 May 2017 4:45:06 pm
442.hamster_13Tue, 9 May 2017 8:33:44 pm
443.Ragdoll.Tue, 9 May 2017 10:29:24 pm
444.Julia GamefreakTue, 9 May 2017 10:46:51 pm
445.IrazuWed, 10 May 2017 11:05:03 am
446.KluseWed, 10 May 2017 1:37:45 pm
447.swamaberlinWed, 10 May 2017 6:02:17 pm
448.NoTaDiJoWed, 10 May 2017 7:16:01 pm
449.Bubi68Wed, 10 May 2017 8:04:42 pm
450.Lila Drachen 1+2Thu, 11 May 2017 9:22:41 pm
451.BriSan.Fri, 12 May 2017 8:34:50 am
452.poemie2005Fri, 12 May 2017 11:30:32 am
453.alon_Fri, 12 May 2017 12:58:06 pm
454.SchnapsdrosselnFri, 12 May 2017 4:52:31 pm
455.Werc2Fri, 12 May 2017 6:07:32 pm
456.teamgecko1Fri, 12 May 2017 8:12:46 pm
457.muellemkSat, 13 May 2017 10:22:07 am
458.mops11Sat, 13 May 2017 6:07:05 pm
459.chrisu36Sat, 13 May 2017 6:45:46 pm
460.Sam MarloweSat, 13 May 2017 8:51:22 pm
461.Hinni&SimoSat, 13 May 2017 10:04:59 pm
462.F-U-Z-YSun, 14 May 2017 3:34:30 pm
463.admel_11Sun, 14 May 2017 9:05:39 pm
464.F-oneSun, 14 May 2017 10:14:11 pm
465.DP58Sun, 14 May 2017 10:51:40 pm
466.team ramsteinMon, 15 May 2017 6:19:36 am
467.GuckerleMon, 15 May 2017 2:43:55 pm
468.Petrs11Mon, 15 May 2017 3:51:18 pm
469.Exonder&CrazyMädlMon, 15 May 2017 6:41:24 pm
470.NiJaTo09Mon, 15 May 2017 8:36:06 pm
471.Stress_netMon, 15 May 2017 9:37:25 pm
472.CiderOfNamibiaTue, 16 May 2017 9:50:33 am
473.Ger-BiTue, 16 May 2017 12:20:53 pm
474.touring1802Tue, 16 May 2017 4:36:54 pm
475.LockeTue, 16 May 2017 5:11:14 pm
476.vineyardshooterTue, 16 May 2017 5:58:05 pm
477.Bille62Tue, 16 May 2017 9:23:56 pm
478.kokkariTue, 16 May 2017 11:20:56 pm
479.Held der ArbeitWed, 17 May 2017 10:14:59 am
480.Gruenspecht49Wed, 17 May 2017 2:49:22 pm
481.Mindy 2011Wed, 17 May 2017 10:52:14 pm
482.Team GoossensWed, 17 May 2017 11:47:32 pm
483.zompiesThu, 18 May 2017 6:22:51 am
484.kunterbunt10Thu, 18 May 2017 11:03:11 am
485.TF92Thu, 18 May 2017 11:24:03 am
486.hensmehensThu, 18 May 2017 1:25:48 pm
487.v-triThu, 18 May 2017 2:54:27 pm
488.SAMAKAThu, 18 May 2017 5:28:53 pm
489.Thorus1Thu, 18 May 2017 7:54:09 pm
490.p.u.s.h.Thu, 18 May 2017 8:28:33 pm
491.meybuxThu, 18 May 2017 10:46:08 pm
492.KA0DISThu, 18 May 2017 11:02:30 pm
493.andi_ilveseThu, 18 May 2017 11:15:47 pm
494.waldfuchs13Fri, 19 May 2017 7:10:24 am
495.AnveenaeFri, 19 May 2017 9:54:22 am
496.Rase112Fri, 19 May 2017 10:24:51 am
497.beetstarFri, 19 May 2017 11:24:35 am
498.CachologenFri, 19 May 2017 1:01:10 pm
499.TheNoCommentsFri, 19 May 2017 1:03:36 pm
500.Liz-CrewFri, 19 May 2017 2:45:17 pm
501.ibagsramFri, 19 May 2017 3:21:08 pm
502.feuerreckeFri, 19 May 2017 6:05:51 pm
503.flämmchen1Fri, 19 May 2017 6:06:22 pm
504.AxeleyFri, 19 May 2017 9:57:04 pm
505.MeinsMeinsSat, 20 May 2017 9:23:07 am
506.K300Sat, 20 May 2017 12:30:22 pm
507.meep-meepSat, 20 May 2017 4:41:31 pm
508.TeamBakerStreetSat, 20 May 2017 8:29:09 pm
509.JackSalterSat, 20 May 2017 10:09:01 pm
510.nudle89Sun, 21 May 2017 1:02:27 am
511.Streifi13Sun, 21 May 2017 1:36:59 pm
512.HeeschterinSun, 21 May 2017 2:01:53 pm
513.kikilottaSun, 21 May 2017 2:08:02 pm
514.BorstelfamilieSun, 21 May 2017 4:07:00 pm
515.haligeSun, 21 May 2017 6:25:52 pm
516.TombRaiderMGSun, 21 May 2017 8:41:47 pm
517.Flep98Sun, 21 May 2017 10:06:29 pm
518.OmeErikSun, 21 May 2017 10:17:41 pm
519.JeylowMon, 22 May 2017 2:50:08 pm
520.ferrojojoMon, 22 May 2017 3:56:10 pm
521.FeiadeifeMon, 22 May 2017 5:33:37 pm
522.wurschtkessel65Mon, 22 May 2017 6:27:53 pm
523.Mrs+MrXMon, 22 May 2017 6:35:29 pm
524.roraimaMon, 22 May 2017 6:53:51 pm
525.DeOOpiesMon, 22 May 2017 8:51:29 pm
526.DF6ADMon, 22 May 2017 9:05:20 pm
527.StaernechingMon, 22 May 2017 9:31:33 pm
528.KölscheRäuberMon, 22 May 2017 10:10:53 pm
529.binimonsaTue, 23 May 2017 10:33:13 am
530.SchlumselTue, 23 May 2017 1:06:21 pm
531.muecke87Tue, 23 May 2017 2:37:09 pm
532.Zorro(zz)Tue, 23 May 2017 2:44:21 pm
533.Die NemosTue, 23 May 2017 3:03:55 pm
534.MurazorTue, 23 May 2017 3:45:22 pm
535.Spider1969Tue, 23 May 2017 7:50:59 pm
536.moonlightshadow2000Tue, 23 May 2017 8:13:03 pm
537.mib1982Tue, 23 May 2017 8:23:21 pm
538.LaponiaTue, 23 May 2017 10:36:19 pm
539.FalterIITue, 23 May 2017 11:26:17 pm
540.YewbaccaTue, 23 May 2017 11:35:04 pm
541.MyskWed, 24 May 2017 12:46:05 am
542.WueschtiWed, 24 May 2017 8:38:09 am
543.Bearl88Wed, 24 May 2017 9:01:29 am
544.bierlordWed, 24 May 2017 11:51:32 am
545.tulakWed, 24 May 2017 12:18:10 pm
546.nicitaWed, 24 May 2017 2:27:51 pm
547.PipakirWed, 24 May 2017 3:17:18 pm
548.lanasanaWed, 24 May 2017 7:49:55 pm
549.CHFilouWed, 24 May 2017 9:51:01 pm
550.Garfield72Wed, 24 May 2017 11:03:19 pm
551.chatgrisWed, 24 May 2017 11:20:16 pm
552.famlangerwsThu, 25 May 2017 10:47:08 am
553.Löwe67Thu, 25 May 2017 10:50:59 am
554.BBosmanThu, 25 May 2017 11:19:56 am
555.Suschi26Thu, 25 May 2017 2:14:40 pm
556.Bex & MoeThu, 25 May 2017 7:16:51 pm
557.Chris_SchmThu, 25 May 2017 8:43:18 pm
558.AlahnaThu, 25 May 2017 8:46:20 pm
559.rabbitdompteursThu, 25 May 2017 9:46:25 pm
560.mikezuluThu, 25 May 2017 11:06:11 pm
561.cashfraggleFri, 26 May 2017 6:39:51 am
562.AnolmaFri, 26 May 2017 9:45:29 am
563.PolizeiFri, 26 May 2017 10:40:28 am
564.Latitoliv & LiaraFri, 26 May 2017 12:10:24 pm
565.Mr.WulfFri, 26 May 2017 12:54:38 pm
566.Agarte-BauerFri, 26 May 2017 1:02:03 pm
567.Silver-71Fri, 26 May 2017 1:48:30 pm
568.AnnairamFri, 26 May 2017 5:58:33 pm
569.nichtsnutz & Daria74Fri, 26 May 2017 9:12:56 pm
570.koiaFri, 26 May 2017 9:54:27 pm
571.49TigerFri, 26 May 2017 11:18:44 pm
572.FlypiratFri, 26 May 2017 11:34:22 pm
573.Mogwai62Fri, 26 May 2017 11:35:03 pm
574.FeenkindSat, 27 May 2017 12:33:53 am
575.podcasterSat, 27 May 2017 9:02:35 am
576.NetF1reSat, 27 May 2017 1:06:41 pm
577.er.tanztSat, 27 May 2017 2:41:53 pm
578.Gonzo08Sat, 27 May 2017 4:04:15 pm
579.De RüganerSat, 27 May 2017 5:05:18 pm
580.Apfelwurm007Sun, 28 May 2017 11:04:36 am
581.smoerfSun, 28 May 2017 8:15:34 pm
582.janer79Sun, 28 May 2017 11:07:12 pm
583.MoselschlumpiMon, 29 May 2017 8:17:33 am
584.Schwerttraeger07Tue, 30 May 2017 4:10:37 pm
585.LoeffelchenWed, 31 May 2017 6:46:44 pm
586.montanesSat, 3 Jun 2017 6:57:01 pm
587.AgraouSat, 3 Jun 2017 9:27:38 pm
588.khal°khaleesiSun, 4 Jun 2017 12:02:36 am
589.MowMaxSun, 4 Jun 2017 12:51:34 pm
590.GarmilySun, 4 Jun 2017 2:16:49 pm
591.SauerkindMon, 5 Jun 2017 6:02:05 pm
592.nijntje007Mon, 5 Jun 2017 9:41:12 pm
593.talekeTue, 13 Jun 2017 11:48:05 pm
594.FixelbeeWed, 14 Jun 2017 1:14:29 pm
595.CassanWed, 21 Jun 2017 9:09:12 pm
596.2bupaThu, 22 Jun 2017 11:24:17 am
597.OpaPeterSun, 25 Jun 2017 11:05:42 pm
598.3capsTue, 27 Jun 2017 12:43:21 pm
599.siminillWed, 28 Jun 2017 10:14:58 pm
600.Emil & die DetektiveSun, 2 Jul 2017 7:06:23 pm
601.eddoblasterMon, 3 Jul 2017 4:15:17 pm
602.MaLiJaMon, 3 Jul 2017 10:46:01 pm
603.Sawi52Tue, 4 Jul 2017 3:17:48 pm
604.Patchwork ThielenFri, 7 Jul 2017 8:22:20 am
605.lucvosSun, 9 Jul 2017 9:04:32 am
606.reiner.r1Sat, 15 Jul 2017 10:27:56 pm
607.freewillisSun, 16 Jul 2017 9:39:41 am
608.SerefinaSun, 16 Jul 2017 2:10:22 pm
609.spagg68Tue, 18 Jul 2017 3:48:15 pm
610.ossikindThu, 20 Jul 2017 12:07:04 am
611.Stefan28 & Co.Thu, 20 Jul 2017 6:14:18 pm
612.wscherpsThu, 20 Jul 2017 10:56:08 pm
613.flinxinfluxSat, 22 Jul 2017 9:40:21 am
614.weichei62Sun, 23 Jul 2017 9:17:04 am
615.Rosarote PantherSun, 23 Jul 2017 3:47:36 pm
616.hexe69Tue, 25 Jul 2017 10:42:56 am
617.BandrazTue, 25 Jul 2017 9:10:14 pm
618.JeAl84Sun, 6 Aug 2017 10:10:21 pm
619.He+BeMon, 7 Aug 2017 6:44:31 pm
620.LaravobiFri, 11 Aug 2017 9:20:16 am
621.Hunter-TRMon, 14 Aug 2017 9:20:14 pm
622.mamarotiMon, 14 Aug 2017 11:15:09 pm
623.Midnattsol83Thu, 17 Aug 2017 8:42:07 am
624.SaarFlo99Thu, 17 Aug 2017 5:23:13 pm
625.marnatpetFri, 18 Aug 2017 9:34:06 am
626.DrSnuggelsSat, 19 Aug 2017 8:08:13 pm
627.nemo175Mon, 21 Aug 2017 1:23:44 pm
628.pietencarlaSat, 26 Aug 2017 4:31:18 pm
629.AJIJSat, 26 Aug 2017 6:05:28 pm
630.Spiti-69Tue, 29 Aug 2017 2:10:06 pm
631.Sturmtochter86Fri, 1 Sep 2017 5:35:50 am
632.BlacktedFri, 1 Sep 2017 6:34:39 pm
633.RekeltjeFri, 1 Sep 2017 8:18:51 pm
634.hubybaerFri, 1 Sep 2017 9:07:30 pm
635.Fire Chief 112Sat, 2 Sep 2017 2:17:40 pm
636.bella0755Sat, 2 Sep 2017 10:53:41 pm
637.Team PöweMon, 4 Sep 2017 12:04:18 am
638.MteamLXTue, 5 Sep 2017 8:44:26 am
639.Yoda911Wed, 6 Sep 2017 2:29:31 pm
640.funfamsWed, 6 Sep 2017 7:30:40 pm
641.siltoTue, 19 Sep 2017 1:27:11 pm
642.Charly_PetriTue, 19 Sep 2017 10:36:22 pm
643.3MKWed, 20 Sep 2017 8:34:56 pm
644.FHMLMon, 25 Sep 2017 2:19:33 pm
645.party-bauerWed, 27 Sep 2017 2:06:40 pm
646.stickhulzFri, 29 Sep 2017 12:45:06 am
647.musikus681Thu, 5 Oct 2017 6:28:46 pm
648.Gilbert 18Thu, 5 Oct 2017 6:48:33 pm
649.hansoniteSun, 8 Oct 2017 3:58:42 pm
650.Buschi48Sun, 8 Oct 2017 4:55:36 pm
651.Piedl1Sun, 8 Oct 2017 6:17:25 pm
652.Team AweiMon, 23 Oct 2017 8:36:29 pm
653.AdlerladyWed, 25 Oct 2017 11:54:26 pm
654.LaikaschnuffThu, 26 Oct 2017 9:16:42 pm
655.mammutedgarWed, 1 Nov 2017 8:07:55 am
656.ghostrider_tomThu, 2 Nov 2017 10:08:17 pm
657.PojoStephAceSun, 5 Nov 2017 9:24:40 pm
658.schmock64Sat, 18 Nov 2017 7:21:05 pm
659.shorty273Tue, 21 Nov 2017 10:36:55 am
660.Lion SkipTue, 21 Nov 2017 9:36:15 pm
661.Erstling1Sun, 26 Nov 2017 10:10:59 pm
662.MozartkugelThu, 28 Dec 2017 6:34:43 pm
663.Renee217Fri, 29 Dec 2017 9:38:32 pm
664.*Le_Chuck*Wed, 3 Jan 2018 6:41:49 pm
665.SittyWed, 10 Jan 2018 11:03:55 pm
666.LateRiser7Wed, 17 Jan 2018 12:36:32 pm